Time,TemperatureF,DewpointF,PressureIn,WindDirection,WindDirectionDegrees,WindSpeedMPH,WindSpeedGustMPH,Humidity,HourlyPrecipIn,Conditions,Clouds,dailyrainin,SoftwareType,DateUTC
2013-12-26 00:21:00,34.0,25.0,30.45,SSE,161,0.0,0.0,68,0.00,,,0.00,,2013-12-26 07:21:00,
2013-12-26 00:42:00,32.0,23.0,30.45,SSE,161,0.0,0.0,68,0.00,,,0.00,,2013-12-26 07:42:00,
2013-12-26 00:52:00,30.0,22.0,30.45,SSE,160,0.0,0.0,72,0.00,,,0.00,,2013-12-26 07:52:00,
2013-12-26 01:22:00,31.0,23.0,30.45,SSE,160,0.0,0.0,72,0.00,,,0.00,,2013-12-26 08:22:00,
2013-12-26 01:42:00,31.0,23.0,30.45,SSE,161,0.0,0.0,72,0.00,,,0.00,,2013-12-26 08:42:00,
2013-12-26 01:53:00,31.0,23.0,30.45,SSE,160,0.0,0.0,73,0.00,,,0.00,,2013-12-26 08:53:00,
2013-12-26 02:12:00,30.0,22.0,30.45,SSE,161,0.0,0.0,73,0.00,,,0.00,,2013-12-26 09:12:00,
2013-12-26 02:22:00,31.0,23.0,30.45,SSE,161,0.0,1.0,73,0.00,,,0.00,,2013-12-26 09:22:00,
2013-12-26 02:43:00,30.0,22.0,30.44,SSE,161,0.0,0.0,71,0.00,,,0.00,,2013-12-26 09:43:00,
2013-12-26 02:53:00,29.0,21.0,30.45,SSE,161,0.0,0.0,72,0.00,,,0.00,,2013-12-26 09:53:00,
2013-12-26 03:13:00,30.0,23.0,30.45,SSE,160,0.0,1.0,74,0.00,,,0.00,,2013-12-26 10:13:00,
2013-12-26 03:22:00,30.0,23.0,30.45,SSE,161,0.0,1.0,74,0.00,,,0.00,,2013-12-26 10:22:00,
2013-12-26 03:42:00,31.0,23.0,30.45,SSE,161,0.0,0.0,72,0.00,,,0.00,,2013-12-26 10:42:00,
2013-12-26 03:52:00,29.0,21.0,30.45,SSE,161,0.0,3.0,73,0.00,,,0.00,,2013-12-26 10:52:00,
2013-12-26 04:12:00,29.0,22.0,30.45,SSE,160,0.0,2.0,74,0.00,,,0.00,,2013-12-26 11:12:00,
2013-12-26 04:22:00,28.0,21.0,30.45,SSE,161,0.0,0.0,74,0.00,,,0.00,,2013-12-26 11:22:00,
2013-12-26 04:43:00,27.0,20.0,30.45,SSE,161,0.0,0.0,75,0.00,,,0.00,,2013-12-26 11:43:00,
2013-12-26 04:52:00,26.0,19.0,30.45,SSE,161,0.0,0.0,76,0.00,,,0.00,,2013-12-26 11:52:00,
2013-12-26 05:22:00,26.0,20.0,30.44,SSE,161,0.0,0.0,78,0.00,,,0.00,,2013-12-26 12:22:00,
2013-12-26 05:42:00,26.0,20.0,30.44,SSE,161,0.0,0.0,79,0.00,,,0.00,,2013-12-26 12:42:00,
2013-12-26 05:52:00,27.0,21.0,30.45,SSE,161,0.0,0.0,77,0.00,,,0.00,,2013-12-26 12:52:00,
2013-12-26 06:22:00,25.0,19.0,30.45,SSE,160,0.0,0.0,77,0.00,,,0.00,,2013-12-26 13:22:00,
2013-12-26 06:42:00,25.0,19.0,30.45,SSE,160,0.0,2.0,78,0.00,,,0.00,,2013-12-26 13:42:00,
2013-12-26 06:52:00,25.0,19.0,30.46,SE,136,0.0,5.0,78,0.00,,,0.00,,2013-12-26 13:52:00,
2013-12-26 07:12:00,25.0,19.0,30.46,SE,136,0.0,0.0,78,0.00,,,0.00,,2013-12-26 14:12:00,
2013-12-26 07:22:00,25.0,19.0,30.46,SE,136,0.0,0.0,79,0.00,,,0.00,,2013-12-26 14:22:00,
2013-12-26 07:42:00,25.0,19.0,30.46,SE,136,0.0,0.0,79,0.00,,,0.00,,2013-12-26 14:42:00,
2013-12-26 07:52:00,24.0,18.0,30.47,SE,137,0.0,0.0,78,0.00,,,0.00,,2013-12-26 14:52:00,
2013-12-26 08:12:00,25.0,19.0,30.47,SE,137,0.0,0.0,79,0.00,,,0.00,,2013-12-26 15:12:00,
2013-12-26 08:22:00,26.0,20.0,30.47,SE,137,0.0,0.0,78,0.00,,,0.00,,2013-12-26 15:22:00,
2013-12-26 08:53:00,28.0,21.0,30.47,SE,137,0.0,0.0,75,0.00,,,0.00,,2013-12-26 15:53:00,
2013-12-26 09:23:00,32.0,23.0,30.48,SE,126,0.0,5.0,70,0.00,,,0.00,,2013-12-26 16:23:00,
2013-12-26 09:42:00,34.0,24.0,30.48,SE,124,0.0,0.0,67,0.00,,,0.00,,2013-12-26 16:42:00,
2013-12-26 09:53:00,35.0,24.0,30.47,SE,124,0.0,1.0,63,0.00,,,0.00,,2013-12-26 16:53:00,
2013-12-26 10:23:00,39.0,25.0,30.46,SE,124,0.0,0.0,57,0.00,,,0.00,,2013-12-26 17:23:00,
2013-12-26 10:43:00,41.0,26.0,30.46,ESE,123,0.0,1.0,54,0.00,,,0.00,,2013-12-26 17:43:00,
2013-12-26 10:52:00,42.0,26.0,30.45,ESE,122,0.0,1.0,52,0.00,,,0.00,,2013-12-26 17:52:00,
2013-12-26 11:12:00,44.0,26.0,30.45,ESE,117,0.0,4.0,49,0.00,,,0.00,,2013-12-26 18:12:00,
2013-12-26 11:22:00,44.0,26.0,30.45,ESE,114,0.0,5.0,48,0.00,,,0.00,,2013-12-26 18:22:00,
2013-12-26 11:42:00,46.0,27.0,30.43,ENE,66,0.0,5.0,47,0.00,,,0.00,,2013-12-26 18:42:00,
2013-12-26 11:52:00,47.0,27.0,30.42,NNW,339,0.0,6.0,45,0.00,,,0.00,,2013-12-26 18:52:00,
2013-12-26 12:11:00,48.0,27.0,30.42,NNW,338,0.0,4.0,43,0.00,,,0.00,,2013-12-26 19:11:00,
2013-12-26 12:22:00,49.0,26.0,30.41,NW,326,1.0,6.0,41,0.00,,,0.00,,2013-12-26 19:22:00,
2013-12-26 12:42:00,49.0,25.0,30.40,NW,325,0.0,5.0,39,0.00,,,0.00,,2013-12-26 19:42:00,
2013-12-26 12:52:00,50.0,26.0,30.38,NW,323,2.0,5.0,39,0.00,,,0.00,,2013-12-26 19:52:00,
2013-12-26 13:22:00,51.0,26.0,30.36,NW,320,1.0,5.0,38,0.00,,,0.00,,2013-12-26 20:22:00,
2013-12-26 13:42:00,51.0,26.0,30.35,NNE,18,2.0,7.0,38,0.00,,,0.00,,2013-12-26 20:42:00,
2013-12-26 13:52:00,52.0,27.0,30.34,North,360,1.0,4.0,37,0.00,,,0.00,,2013-12-26 20:52:00,
2013-12-26 14:11:00,52.0,27.0,30.32,WNW,284,0.0,8.0,37,0.00,,,0.00,,2013-12-26 21:11:00,
2013-12-26 14:22:00,52.0,27.0,30.32,NW,309,0.0,6.0,37,0.00,,,0.00,,2013-12-26 21:22:00,
2013-12-26 14:43:00,53.0,26.0,30.31,West,275,0.0,6.0,35,0.00,,,0.00,,2013-12-26 21:43:00,
2013-12-26 14:53:00,53.0,26.0,30.30,West,273,0.0,1.0,35,0.00,,,0.00,,2013-12-26 21:53:00,
2013-12-26 15:12:00,54.0,26.0,30.30,West,273,0.0,4.0,34,0.00,,,0.00,,2013-12-26 22:12:00,
2013-12-26 15:23:00,54.0,26.0,30.30,West,271,0.0,6.0,34,0.00,,,0.00,,2013-12-26 22:23:00,
2013-12-26 15:43:00,54.0,26.0,30.29,West,274,0.0,5.0,34,0.00,,,0.00,,2013-12-26 22:43:00,
2013-12-26 15:52:00,54.0,26.0,30.29,West,274,0.0,3.0,34,0.00,,,0.00,,2013-12-26 22:52:00,
2013-12-26 16:12:00,54.0,26.0,30.29,West,269,1.0,6.0,33,0.00,,,0.00,,2013-12-26 23:12:00,
2013-12-26 16:22:00,54.0,26.0,30.29,West,269,0.0,3.0,34,0.00,,,0.00,,2013-12-26 23:22:00,
2013-12-26 16:42:00,54.0,26.0,30.29,West,269,0.0,3.0,33,0.00,,,0.00,,2013-12-26 23:42:00,
2013-12-26 16:53:00,53.0,25.0,30.29,West,269,0.0,1.0,33,0.00,,,0.00,,2013-12-26 23:53:00,
2013-12-26 17:12:00,53.0,25.0,30.29,West,269,0.0,0.0,34,0.00,,,0.00,,2013-12-27 00:12:00,
2013-12-26 17:22:00,53.0,25.0,30.29,West,269,0.0,0.0,34,0.00,,,0.00,,2013-12-27 00:22:00,
2013-12-26 17:32:00,53.0,25.0,30.29,West,269,0.0,0.0,34,0.00,,,0.00,,2013-12-27 00:32:00,
2013-12-26 17:42:00,53.0,25.0,30.29,West,269,0.0,0.0,34,0.00,,,0.00,,2013-12-27 00:42:00,
2013-12-26 17:52:00,49.0,24.0,30.29,West,269,0.0,0.0,37,0.00,,,0.00,,2013-12-27 00:52:00,
2013-12-26 18:11:00,47.0,24.0,30.30,West,269,0.0,0.0,40,0.00,,,0.00,,2013-12-27 01:11:00,
2013-12-26 18:21:00,45.0,23.0,30.31,West,269,0.0,0.0,42,0.00,,,0.00,,2013-12-27 01:21:00,
2013-12-26 18:42:00,43.0,22.0,30.31,West,269,0.0,0.0,43,0.00,,,0.00,,2013-12-27 01:42:00,
2013-12-26 18:52:00,42.0,23.0,30.32,West,269,0.0,0.0,46,0.00,,,0.00,,2013-12-27 01:52:00,
2013-12-26 19:11:00,41.0,22.0,30.32,West,269,0.0,0.0,47,0.00,,,0.00,,2013-12-27 02:11:00,
2013-12-26 19:22:00,40.0,21.0,30.32,West,269,0.0,0.0,47,0.00,,,0.00,,2013-12-27 02:22:00,
2013-12-26 19:42:00,39.0,21.0,30.32,West,269,0.0,1.0,49,0.00,,,0.00,,2013-12-27 02:42:00,
2013-12-26 19:52:00,39.0,21.0,30.33,West,269,0.0,0.0,48,0.00,,,0.00,,2013-12-27 02:52:00,
2013-12-26 20:22:00,37.0,21.0,30.35,West,269,0.0,0.0,52,0.00,,,0.00,,2013-12-27 03:22:00,
2013-12-26 20:43:00,36.0,21.0,30.35,West,269,0.0,0.0,53,0.00,,,0.00,,2013-12-27 03:43:00,
2013-12-26 20:53:00,35.0,20.0,30.35,West,269,0.0,0.0,55,0.00,,,0.00,,2013-12-27 03:53:00,
2013-12-26 21:12:00,35.0,21.0,30.36,West,269,0.0,1.0,57,0.00,,,0.00,,2013-12-27 04:12:00,
2013-12-26 21:23:00,35.0,22.0,30.36,West,269,0.0,0.0,58,0.00,,,0.00,,2013-12-27 04:23:00,
2013-12-26 21:43:00,34.0,21.0,30.37,West,269,0.0,0.0,59,0.00,,,0.00,,2013-12-27 04:43:00,
2013-12-26 21:53:00,34.0,22.0,30.37,West,269,0.0,0.0,60,0.00,,,0.00,,2013-12-27 04:53:00,
2013-12-26 22:12:00,33.0,21.0,30.37,West,269,0.0,1.0,60,0.00,,,0.00,,2013-12-27 05:12:00,
2013-12-26 22:22:00,33.0,22.0,30.37,West,269,0.0,0.0,63,0.00,,,0.00,,2013-12-27 05:22:00,
2013-12-26 22:52:00,32.0,20.0,30.38,West,269,0.0,0.0,62,0.00,,,0.00,,2013-12-27 05:52:00,
2013-12-26 23:22:00,31.0,21.0,30.38,West,269,0.0,0.0,65,0.00,,,0.00,,2013-12-27 06:22:00,
2013-12-26 23:43:00,31.0,21.0,30.39,West,269,0.0,0.0,66,0.00,,,0.00,,2013-12-27 06:43:00,
2013-12-26 23:52:00,29.0,19.0,30.38,West,269,0.0,0.0,67,0.00,,,0.00,,2013-12-27 06:52:00,